Submittal Forms
Current Contests
Recent Contests

Club Activity Tracker - Yankee Clipper Contest Club (from club selection on form)

Recent postings for the selected club or group are listed below. Other than the call used, all calls listed are only those associated with the club or group. Click on a call to see the details of the posting.
Status Key: new=new posting, update=update prior posting, move=change club/group, delete=delete prior posting.

Sort by   for past

TimestampCallContestClassPowerScoreStatus
2024-05-24 11:47:47K1RVCWopsT 0300Z May 23Single OpHP1,296new9473
2024-05-24 11:45:47K1RVCWopsT 1300Z May 22Single OpHP400new9471
2024-05-24 03:10:39K8CNNCCC Sprint May 24Single OpLP609new9477
2024-05-24 03:08:14AJ1DMNCCC Sprint May 24Single OpLP638new9477
2024-05-24 03:05:22W1FJNCCC Sprint May 24Single OpLP918new9477
2024-05-24 02:38:10W1NRWRT May 24Single OpLP196new9476
2024-05-23 08:02:06K1DJCWopsT 0700Z May 23Single OpHP2,750new9474
2024-05-23 04:05:13K1VUTCWopsT 0300Z May 23Single OpLP11,424new9473
2024-05-23 04:01:42K1BZCWopsT 0300Z May 23Single OpHP3,900new9473
2024-05-23 03:53:52W1TOCWopsT 0300Z May 23Single OpHP4,761new9473
 
2024-05-23 03:16:56K1DJCWopsT 0300Z May 23Single OpLP676new9473
2024-05-22 20:26:56W1QKCWopsT 1900Z May 22Single OpLP6,318new9472
2024-05-22 20:05:48K1EBYCWopsT 1900Z May 22Single OpHP15,252new9472
2024-05-22 20:04:24W1TOCWopsT 1900Z May 22Single OpHP7,221new9472
2024-05-22 20:03:28NM2ACWopsT 1900Z May 22Single OpLP6,723new9472
2024-05-22 20:03:22K1MTCWopsT 1900Z May 22Single OpHP2,805new9472
2024-05-22 20:03:05K1VUTCWopsT 1900Z May 22Single OpLP9,009new9472
2024-05-22 20:02:38W1RMCWopsT 1300Z May 22Single OpHP900new9471
2024-05-22 20:01:58K1DJCWopsT 1900Z May 22Single OpLP5,520new9472
2024-05-22 20:01:40W1RMCWopsT 1900Z May 22Single OpHP4,830new9472
 
2024-05-22 19:32:27K1IGCWopsT 1900Z May 22Single OpLP400new9472
2024-05-22 16:10:56K1VUTCWopsT 1300Z May 22Single OpLP8,178new9471
2024-05-22 14:48:20K1EBY(K1EB)CWopsT 1300Z May 22Single OpHP702new9471
2024-05-22 14:09:41W1QKCWopsT 1300Z May 22Single OpLP6,160new9471
2024-05-22 14:08:40W1TOCWopsT 1300Z May 22Single OpHP41new9471
2024-05-22 14:01:40NM2ACWopsT 1300Z May 22Single OpLP8,463new9471
2024-05-22 13:53:12K1BZCWopsT 1300Z May 22Single OpHP1,600new9471
2024-05-22 13:31:47K1IGCWopsT 1300Z May 22Single OpLP441new9471
2024-05-21 14:00:18K1EBYICWC MST 1900Z May 20Single OpHP4,080new9466
2024-05-21 04:03:06AK1MDICWC MST 0300Z May 21Single OpHP2,236new9467
 
2024-05-20 20:04:10K1MTICWC MST 1900Z May 20Single OpHP2,600new9466
2024-05-20 20:02:52NM2AICWC MST 1900Z May 20Single OpLP2,346new9466
2024-05-20 15:45:32N1SOHArQPMulti-OpHP544new9463
 (W1FM,@N1SOH)
2024-05-20 15:42:18N1SOHKing of Spain CWMulti-OpHP1,710new9461
 (W1FM,@N1SOH)
2024-05-20 15:40:51N1SOHUNDXM/SHP5new9460
 (W1FM,@N1SOH)
2024-05-20 15:39:49N1SOHBalticM/SHP1new9464
 (W1FM,@N1SOH)
2024-05-20 14:01:30NM2AICWC MST 1300Z May 20Single OpLP2,891new9465
2024-05-20 13:21:13KW1XICWC MST 1300Z May 20Single OpHP324new9465
2024-05-20 01:57:08NG1MKRC SST May 20Academy Single OpHP81update9459
2024-05-20 01:02:29NM2AKRC SST May 20Single OpLP720new9459
 
2024-05-19 15:43:51K1JBKing of Spain CWSOSB/20HP368new9461
2024-05-19 14:27:34W1FJKing of Spain CWSOABQRP4,180new9461
2024-05-19 13:47:36W2CSKing of Spain CWSOSB/15HP364new9461
2024-05-19 12:39:36K1ZZKing of Spain CWSOABHP61,476new9461
2024-05-19 12:32:24W1UJKing of Spain CWSOABHP189new9461
2024-05-19 12:28:22N1DCKing of Spain CWSOABLP4,134new9461
2024-05-19 12:28:02K1LZKing of Spain CWSOABHP62,860new9461
2024-05-19 12:20:47AK1MDKing of Spain CWSOABHP66,640new9461
2024-05-19 05:56:52NM2AArQPSOCWLP484new9463
2024-05-17 20:55:26NM2AKRC SST May 17Single OpLP1,128new9458
 
2024-05-17 03:07:34K8CNNCCC Sprint May 17Single OpLP900new9457
2024-05-17 03:05:07W1FJNCCC Sprint May 17Single OpLP961new9457
2024-05-17 01:35:44W1UE(@W1KM)NCCC FT4-Sprint May 17Single OpLP575new9455
2024-05-16 20:51:51K1RVCWopsT 0300Z May 16Single OpHP7,120new9453
2024-05-16 20:50:23K1RVCWopsT 1900Z May 15Single OpHP484new9452
2024-05-16 20:49:02K1RVCWopsT 1300Z May 15Single OpHP361new9451
2024-05-16 08:03:36K1DJCWopsT 0700Z May 16Single OpHP475new9454
2024-05-16 04:04:05K1VUTCWopsT 0300Z May 16Single OpLP12,402new9453
2024-05-16 03:46:25K1BZCWopsT 0300Z May 16Single OpHP1,023new9453
2024-05-16 03:38:33W1TOCWopsT 0300Z May 16Single OpHP3,721new9453
 
2024-05-16 03:17:05K1DJCWopsT 0300Z May 16Single OpLP784new9453
2024-05-15 21:15:10K1VUTCWopsT 1900Z May 15Single OpLP361new9452
2024-05-15 20:37:02W1QKCWopsT 1900Z May 15Single OpLP4,680new9452
2024-05-15 20:19:33K1EBYCWopsT 1900Z May 15Single OpHP10,300new9452
2024-05-15 20:03:37N1DCCWopsT 1900Z May 15Single OpLP5,925new9452
2024-05-15 20:03:15K1MTCWopsT 1900Z May 15Single OpHP1,720new9452
2024-05-15 20:02:53NM2ACWopsT 1900Z May 15Single OpLP7,743new9452
2024-05-15 20:02:18W1RMCWopsT 1900Z May 15Single OpHP169new9452
2024-05-15 20:01:51W1RMCWopsT 1300Z May 15Single OpHP100new9451
2024-05-15 20:01:32K1DJCWopsT 1900Z May 15Single OpLP6,150new9452
 
2024-05-15 19:48:38K1IGCWopsT 1900Z May 15Single OpLP1,296new9452
2024-05-15 19:42:52KW1XCWopsT 1300Z May 15Single OpLP169new9451
2024-05-15 19:36:55W1TOCWopsT 1900Z May 15Single OpHP1,188new9452
2024-05-15 14:59:23W1QKCWopsT 1300Z May 15Single OpLP4,221new9451
2024-05-15 14:05:12K1VUTCWopsT 1300Z May 15Single OpLP7,830new9451
2024-05-15 14:04:08N1DCCWopsT 1300Z May 15Single OpLP6,885new9451
2024-05-15 14:02:41K1DJCWopsT 1300Z May 15Single OpLP5,467new9451
2024-05-15 14:02:29K1MTCWopsT 1300Z May 15Single OpHP2,160new9451
2024-05-15 14:02:25NM2ACWopsT 1300Z May 15Single OpLP7,120new9451
2024-05-15 14:02:10W1TOCWopsT 1300Z May 15Single OpHP1,640new9451
 
2024-05-15 13:59:14K1BZCWopsT 1300Z May 15Single OpHP1,225new9451
2024-05-15 13:38:29W2CSCWopsT 1300Z May 15Single OpHP3,364new9451
2024-05-15 13:29:25K1IGCWopsT 1300Z May 15Single OpLP121new9451
2024-05-14 04:04:57AK1MDICWC MST 0300Z May 14Single OpHP288new9447
2024-05-13 20:08:34K1MTICWC MST 1900Z May 13Single OpHP2,397new9446
2024-05-13 20:03:28K1MTICWC MST 1300Z May 13Single OpHP2,397new9445
2024-05-13 20:01:27NM2AICWC MST 1900Z May 13Single OpLP3,348new9446
2024-05-13 13:10:05KW1XICWC MST 1300Z May 13Single OpHP100new9445
2024-05-12 16:56:59N1SOHCQ-MM/SHP2new9442
 (W1FM,@N1SOH)
2024-05-12 16:55:22N1SOHVolta RTTYMulti-OpHP1,960new9441
 (W1FM,@N1SOH)
 
2024-05-12 16:52:44N1SOHCPQPM/SHP20new9443
 (W1FM,@N1SOH)
2024-05-12 12:08:26K1LZCQ-MSOABCWHP14,000new9442
2024-05-12 02:15:49N2KW(@K1TTT)50SprngSprntSingle OpLP112new9444
2024-05-11 18:39:35K1KANewEngQPSingle OpHP44,032new9425
2024-05-10 21:04:57K1EBYNewEngQPSingle OpLP208new9425
2024-05-10 21:04:37K1MTKRC SST May 10Single OpHP968new9439
2024-05-10 21:03:53NM2AKRC SST May 10Single OpLP1,300new9439
2024-05-10 19:21:27K1RVCWopsT 0300Z May 9Single OpHP1,806new9434
2024-05-10 19:19:57K1RVCWopsT 1900Z May 8Single OpHP256new9433
2024-05-10 19:18:37K1RVCWopsT 1300Z May 8Single OpHP256new9432
 
2024-05-10 17:30:57AE1TFlQPSOAB(A)CWHP6,640new9397
2024-05-10 15:52:24K1LZARIM/SHP0delete9421
 (AC1NU)
2024-05-10 03:05:18AJ1DMNCCC Sprint May 10Single OpLP621new9438
2024-05-10 01:37:11W1UE(@W1KM)NCCC FT4-Sprint May 10Single OpLP1,295new9436
2024-05-09 23:56:48NZ1U(W1UJ,@N1WK)NewEngQPSO MobileLP121,866new9425
2024-05-09 22:32:28K1VUTInQPSingle OpLP1,116new9423
2024-05-09 22:31:07K1VUTDeQPSingle OpLP480new9424
2024-05-09 22:29:52K1VUT7QPSOCWLP11,439new9422
2024-05-09 18:33:40W1FMNewEngQPM/MHP99,756new9425
 (N1SOH,@W1FM)
2024-05-09 18:29:07W1FM7QPM/MHP5,907new9422
 (N1SOH,@W1FM)
 
2024-05-09 18:04:15K1VSJNewEngQPSingle OpLP2,346new9425
2024-05-09 15:44:55W1FMInQPM/MHP360new9423
 (N1SOH,@W1FM)
2024-05-09 15:42:32W1FMDeQPM/SHP850new9424
 (N1SOH,@W1FM)
2024-05-09 08:02:03K1DJCWopsT 0700Z May 9Single OpHP4,158new9435
2024-05-09 04:05:23K1VUTCWopsT 0300Z May 9Single OpLP12,390new9434
2024-05-09 03:28:54W1TOCWopsT 0300Z May 9Single OpHP1,849new9434
2024-05-09 03:17:13K1DJCWopsT 0300Z May 9Single OpLP900new9434
2024-05-08 23:16:28W1JSRNewEngQPSingle OpLP585new9425
2024-05-08 22:48:03K8CNNewEngQPSingle OpQRP6,664new9425
2024-05-08 20:42:08W1QKCWopsT 1900Z May 8Single OpLP8,712new9433
 
2024-05-08 20:05:33NM2ACWopsT 1900Z May 8Single OpLP7,917new9433
2024-05-08 20:05:00K1VUTCWopsT 1900Z May 8Single OpLP7,644new9433
2024-05-08 20:02:45K1MTCWopsT 1900Z May 8Single OpLP1,755new9433
2024-05-08 20:02:06W1TOCWopsT 1900Z May 8Single OpHP9,500new9433
2024-05-08 20:01:59K1DJCWopsT 1900Z May 8Single OpLP5,159new9433
2024-05-08 20:01:44K1TRCWopsT 1900Z May 8Single OpLP15,240new9433
2024-05-08 19:39:51K1IGCWopsT 1900Z May 8Single OpLP1,156new9433
2024-05-08 19:20:29K1RVNewEngQPSingle OpHP56,826new9425
2024-05-08 14:26:27W1QKCWopsT 1300Z May 8Single OpLP5,840new9432
2024-05-08 14:02:19W1RMCWopsT 1300Z May 8Single OpHP2,304new9432
 
2024-05-08 14:02:17NM2ACWopsT 1300Z May 8Single OpLP12,654new9432
2024-05-08 14:02:16K1DJCWopsT 1300Z May 8Single OpLP6,241new9432
2024-05-08 14:01:55W1TOCWopsT 1300Z May 8Single OpHP10,710new9432
2024-05-08 13:49:00K1IGCWopsT 1300Z May 8Single OpLP576new9432
2024-05-08 13:48:50K1BZCWopsT 1300Z May 8Single OpHP1,190new9432
2024-05-08 13:44:31KW1XCWopsT 1300Z May 8Single OpHP4,290new9432
2024-05-08 13:23:34K1VUTCWopsT 1300Z May 8Single OpLP441new9432
2024-05-07 21:20:32KC1SDDNewEngQPSingle OpLP7,854new9425
2024-05-07 18:59:01KC1QEMNewEngQPSingle OpLP12,950new9425
2024-05-07 17:27:35KC1QEMInQPSingle OpLP357new9423
 
2024-05-07 17:25:22KC1QEMDeQPSingle OpLP300new9424
2024-05-07 16:43:40W1DYJNewEngQPSingle OpLP7,035new9425
2024-05-07 14:38:03W1VE/MNewEngQPM/S MobileLP41,600new9425
 (K1EP,K2TR,@W1VE)
2024-05-07 11:52:12KC1RWRNewEngQPSingle OpLP10,250new9425
2024-05-07 04:03:18AK1MDICWC MST 0300Z May 7Single OpHP1,677new9428
2024-05-07 02:08:42K1RXNewEngQPSingle OpHP146,944new9425
2024-05-07 01:09:43W1HISNewEngQPSingle OpHP79,328new9425
2024-05-06 20:04:47K1MTICWC MST 1900Z May 6Single OpHP1,763new9427
2024-05-06 20:02:34K1MTICWC MST 1300Z May 6Single OpHP1,763new9426
2024-05-06 18:53:17K1MTNewEngQPSingle OpHP438new9425
 
2024-05-06 17:27:58N4ADC(@W1CSM)NewEngQPSingle OpLP2,088new9425
2024-05-06 16:29:26N1SOHARIM/SHP4,074new9421
 (W1FM,@N1SOH)
2024-05-06 16:21:35W1BPTNewEngQPM/MLP16,750new9425
 (N1MRI,K2RB,KC1LCC,W1BPT,@NI1Q)
2024-05-06 15:56:27WO1NNewEngQPSingle OpLP76,860new9425
2024-05-06 15:42:49KA2KONNewEngQPSingle OpLP231new9425
2024-05-06 15:06:18W1FJNewEngQPSingle OpHP91,608new9425
2024-05-06 14:47:17K1JB/M(K1JB)NewEngQPSO MobileLP12,716new9425
2024-05-06 14:00:22K1RONewEngQPSingle OpQRP63,840new9425
2024-05-06 13:49:08KW1XICWC MST 1300Z May 6Single OpHP2,132new9426
2024-05-06 13:29:45W1FVNewEngQPSingle OpHP25,122new9425
 
2024-05-06 12:23:52K1XMNewEngQPSingle OpLP109,760new9425
2024-05-06 11:59:48K1TRNewEngQPSingle OpLP250,716new9425
2024-05-06 11:51:26KW1XNewEngQPSingle OpLP23,500new9425
2024-05-06 11:31:07KD1MCNewEngQPM/SHP241,290new9425
 (W1ETI,K1ESE,@KD1MC)
2024-05-06 09:32:46WS1LNewEngQPSingle OpHP25,850new9425
2024-05-06 03:26:18AE1P7QPSOMixedHP44,270new9422
2024-05-06 02:40:43K1IRNewEngQPSingle OpLP38,999new9425
2024-05-06 02:40:28K2LE/1(K2LE)NewEngQPSingle OpHP93,909new9425
2024-05-06 02:11:03K1KINewEngQPM/SHP138,765new9425
 (@K1KI)
2024-05-06 02:08:52WK1ONewEngQPSingle OpHP29,839new9425
 
2024-05-06 01:55:57AE1PNewEngQPSingle OpHP41,769new9425
2024-05-06 01:50:35N1IBMNewEngQPSingle OpHP21,995new9425
2024-05-06 01:10:59AK1W(K5ZD)NewEngQPSingle OpHP135,240new9425
2024-05-06 01:06:00K1VUTNewEngQPSingle OpLP192,792new9425
2024-05-06 00:59:57W1RMNewEngQPSingle OpHP36,120new9425
2024-05-06 00:56:57K1DJNewEngQPSingle OpHP12,012new9425
2024-05-06 00:48:49W2CS/1(@W2CS)NewEngQPSingle OpHP18,336new9425
2024-05-06 00:44:23K1THNewEngQPSingle OpHP34,160update9425
2024-05-06 00:38:39N1JINewEngQPSingle OpQRP44,574new9425
2024-05-06 00:36:55K1IBNewEngQPSO MobileLP72,726new9425
 
2024-05-06 00:33:06K1JBNewEngQPSingle OpHP67,990new9425
2024-05-06 00:32:13N2ZANewEngQPSingle OpHP100,716new9425
2024-05-06 00:26:27N1DCNewEngQPSingle OpLP123,200new9425
2024-05-06 00:20:37KE1VTNewEngQPSingle OpHP130,962new9425
2024-05-06 00:19:54W2DANNewEngQPSingle OpHP105,270new9425
2024-05-06 00:18:36WB2NVRNewEngQPSingle OpLP12,159new9425
2024-05-06 00:13:32K1DC(@K1KP)NewEngQPSingle OpHP68,124new9425
2024-05-06 00:07:34K1ZZNewEngQPSingle OpHP262,444new9425
2024-05-06 00:02:40KI1UNewEngQPSingle OpLP39,960new9425
2024-05-05 23:21:57W1EQNewEngQPSingle OpHP59,000new9425
 
2024-05-05 22:36:13K1BZNewEngQPSingle OpHP4,176new9425
2024-05-05 22:36:07AG1CNewEngQPM/MHP3,328new9425
 (AG1C,K1RDD,@W1SRG)
2024-05-05 15:10:01K1RO7QPSOCWQRP5,346new9422
2024-05-05 12:12:27AK1MDARISO MixedHP804,804new9421
2024-05-04 23:04:09KC1SANewEngQPSingle OpHP288new9425
2024-05-03 03:10:33K8CNNCCC Sprint May 3Single OpLP650new9417
2024-05-03 03:06:12W1FJNCCC Sprint May 3Single OpLP864new9417
2024-05-03 03:03:49AJ1DMNCCC Sprint May 3Single OpLP285new9417
2024-05-03 01:36:15W1UE(@W1KM)NCCC FT4-Sprint May 3Single OpLP1,122new9415
2024-05-02 22:21:36W1QKCWopsT 0300Z May 2Single OpLP3,080new9413
 
2024-05-02 22:19:26W1QKCWopsT 1900Z May 1Single OpLP8,439new9412
2024-05-02 08:03:04K1DJCWopsT 0700Z May 2Single OpHP600new9414
2024-05-02 04:51:53K1RVCWopsT 0300Z May 2Single OpHP600new9413
2024-05-02 03:33:12W1TOCWopsT 0300Z May 2Single OpHP1,640new9413
2024-05-02 03:17:27K1DJCWopsT 0300Z May 2Single OpLP729new9413
2024-05-02 02:21:40K1RVCWopsT 1900Z May 1Single OpHP676new9412
2024-05-02 02:20:19K1RVCWopsT 1300Z May 1Single OpHP289new9411
2024-05-02 00:09:59W1TOCWopsT 1900Z May 1Single OpHP289new9412
2024-05-01 21:22:48N4ADCCQMM DXM/SHP469,920new9370
 (N4ADC,@W1CSM)
2024-05-01 20:34:28W1RMCWopsT 1900Z May 1Single OpHP529new9412
 
2024-05-01 20:02:25K1DJCWopsT 1900Z May 1Single OpLP9,191new9412
2024-05-01 19:43:34K1IGCWopsT 1900Z May 1Single OpLP1,225new9412
2024-05-01 18:55:58W1TOCWopsT 1300Z May 1Single OpHP676new9411
2024-05-01 14:58:54W1QKCWopsT 1300Z May 1Single OpLP5,852new9411
2024-05-01 14:10:37K1DJCWopsT 1300Z May 1Single OpLP6,000new9411
2024-05-01 14:07:06N1DCCWopsT 1300Z May 1Single OpLP9,991new9411
2024-05-01 14:03:32AE1TCWopsT 1300Z May 1Single OpHP3,025new9411
2024-05-01 14:01:49W2CSCWopsT 1300Z May 1Single OpHP12,656new9411
2024-05-01 13:27:21K1IGCWopsT 1300Z May 1Single OpLP225new9411
2024-04-30 19:21:55W1TOFlQPSOABCWHP35,510new9397
 
2024-04-30 04:11:01AK1MDICWC MST 0300Z Apr 30Single OpHP3,000new9405
2024-04-30 04:09:03AK1MDHelvetiaSO CWHP448new9396
2024-04-29 23:26:52N1SOHHelvetiaMulti-Op MixedLP420new9396
 (W1FM,@N1SOH)
2024-04-29 23:24:37N1SOHUK/EI DX CWMulti-OpLP176new9395
 (W1FM,@N1SOH)
2024-04-29 20:03:44K1MTICWC MST 1900Z Apr 29Single OpHP2,650new9404
2024-04-29 17:22:06W1JSRFlQPM/SSSBLP4,340new9397
 (W1KAT,@W1JSR)
2024-04-29 16:55:59KC1QEMFlQPSOAB(A)SSBLP5,624update9397
2024-04-29 15:46:16W1FMFlQPM/SMixedLP154,656new9397
 (N1SOH,@W1FM)
2024-04-29 14:10:26K1EBYICWC MST 1300Z Apr 29Single OpHP1,520new9403
2024-04-29 14:05:56KW1XICWC MST 1300Z Apr 29Single OpHP4,270new9403
 
2024-04-29 14:03:25W2CSICWC MST 1300Z Apr 29Single OpHP986new9403
2024-04-29 01:54:40W1KMFlQPSOABCWHP1,260new9397
2024-04-29 01:13:40W2CSFlQPSOAB(A)CWHP8,480new9397
2024-04-28 23:55:15WB2NVRFlQPSOABMixedLP63,536new9397
2024-04-28 23:44:41KQ2MWPX SSBSOAB ClassicHP19,247,488update9303
2024-04-28 22:44:42W1FJFlQPSOABCWLP47,908new9397
2024-04-28 22:38:58VA2EBIFlQPSOABCWHP2,052new9397
2024-04-28 22:30:41K1VUTFlQPSOABCWLP14,140new9397
2024-04-28 22:10:01N2ZAFlQPSOABMixedHP25,754new9397
2024-04-28 22:09:43N1IBMFlQPSOAB(A)MixedHP26,124new9397
 
2024-04-28 22:08:46N1DCFlQPSOABCWLP4,212new9397
2024-04-28 21:59:44K1JBFlQPSOAB(A)MixedHP70,200new9397
2024-04-28 20:07:19K1IBFlQPSOABCWLP6,000new9397
2024-04-28 16:08:56K1DCSPDX RTTYSO NoviceLP33,075new9394
2024-04-26 21:03:51K1MTKRC SST Apr 26Single OpHP858new9392
2024-04-26 21:02:36NM2AKRC SST Apr 26Single OpLP1,764new9392
2024-04-26 03:05:42W1FJNCCC Sprint Apr 26Single OpLP1,462new9391
2024-04-26 01:38:37W1UE(@W1KM)NCCC FT4-Sprint Apr 26Single OpLP1,980new9389
2024-04-25 17:51:54W1QKCWopsT 1900Z Apr 24Single OpLP7,128update9385
2024-04-25 17:43:00W1QKCWopsT 0300Z Apr 25Single OpLP4,096new9386
 
2024-04-25 15:00:52K1ZZ432SprngSprntSingle OpLP128new9388
2024-04-25 08:03:13K1DJCWopsT 0700Z Apr 25Single OpHP5,832new9387
2024-04-25 05:18:18N1SOHCQMM DXSOABQRP14,421new9370
2024-04-25 05:15:04N1SOHYU DXM/SLP4new9368
 (W1FM,@N1SOH)
2024-04-25 05:13:36N1SOHMiQPM/SLP561new9372
 (W1FM,@N1SOH)
2024-04-25 05:11:20N1SOHQCQPMulti-OpLP108new9374
 (W1FM,@N1SOH)
2024-04-25 05:08:27N1SOHOnQPM/SLP280new9373
 (W1FM,@N1SOH)
2024-04-25 05:06:42N1SOH(W1FM)NeQPOut of StateLP42new9371
2024-04-25 04:02:33K1NYCWopsT 0300Z Apr 25Single OpLP3,416new9386
2024-04-25 04:02:09K1BZCWopsT 0300Z Apr 25Single OpHP4,270new9386
 
2024-04-25 03:27:54W1TOCWopsT 0300Z Apr 25Single OpHP676new9386
2024-04-25 03:17:40K1DJCWopsT 0300Z Apr 25Single OpLP1,024new9386
2024-04-25 00:53:07K1RVCWopsT 1900Z Apr 24Single OpHP144new9385
2024-04-25 00:51:59K1RVCWopsT 1300Z Apr 24Single OpHP400new9384
2024-04-25 00:16:01W1RMCWopsT 1300Z Apr 24Single OpHP169new